Theta_e
312 312 311 312 312 312 312 310 312 315 315 314 314 314 316 317 315 316 319 314 311 314 315 314 314 314 314 315 312 310 312 312 312 312 312 313 313 314 314 314 315 315 315 315 314 314 314 314 314 313 313 313 313 314 314 315 315 316 316 317 318 318 319 320 320 320 321 321 321 321 319 316 315 315 315 315 315 315 314 314 314 314 315 316 316 315
312 313 311 312 311 311 312 311 312 313 312 312 314 314 314 316 316 315 316 314 311 313 316 315 314 314 314 314 311 309 310 311 312 312 312 314 314 314 314 314 315 315 315 315 315 315 315 315 315 315 314 313 313 314 314 315 314 314 315 315 316 317 318 318 316 317 317 316 316 316 315 314 314 315 315 315 315 315 315 315 315 315 315 315 315 316
311 312 312 311 310 311 312 312 312 311 311 312 314 314 315 315 316 315 314 315 312 313 318 317 314 315 314 314 311 308 310 312 313 313 313 315 314 314 314 314 314 314 315 315 315 315 315 315 315 315 315 314 313 313 313 314 314 314 315 315 315 316 316 315 315 315 315 314 313 314 315 315 315 315 315 315 316 316 317 316 316 316 316 316 315 316
311 311 311 309 309 311 312 311 312 311 311 314 315 315 315 315 315 315 314 314 313 313 316 317 315 315 313 313 313 310 311 312 313 313 313 314 314 314 315 314 314 314 315 315 314 315 315 315 315 315 315 314 314 313 313 313 313 314 314 314 314 314 315 314 314 314 313 314 315 316 316 317 317 317 317 317 317 317 316 316 316 315 315 315 315 316
312 311 309 309 310 311 312 311 312 311 311 315 317 317 317 316 315 316 314 315 314 313 315 315 314 318 318 316 314 311 310 311 311 312 313 313 314 314 315 314 315 315 314 315 315 315 315 315 315 314 314 314 314 313 314 313 313 314 314 313 313 313 314 313 313 313 313 314 316 318 318 319 319 318 317 317 316 315 315 315 315 315 315 315 315 316
312 310 310 311 311 311 311 311 313 313 312 314 317 320 321 317 316 317 317 316 314 315 316 312 314 326 330 323 319 315 312 311 310 310 311 313 314 314 314 315 315 315 314 315 315 314 314 314 314 314 314 314 314 313 313 313 313 314 313 314 313 313 313 313 313 313 313 314 315 316 317 318 317 317 316 316 315 315 314 315 315 315 316 315 316 317
313 310 310 312 312 313 313 312 314 314 312 314 317 322 323 318 318 320 318 319 318 315 315 314 315 322 325 323 323 319 316 316 313 310 310 311 314 314 314 315 315 315 315 315 315 315 314 314 314 314 314 314 314 314 313 314 313 313 314 314 314 314 314 314 313 313 314 314 314 315 315 315 314 315 314 314 314 315 315 315 316 316 317 317 318 318
313 311 311 313 312 313 312 311 314 314 312 316 319 321 323 320 321 320 317 322 323 316 318 322 318 315 316 320 321 316 317 321 318 315 312 309 311 314 314 315 315 315 316 315 315 315 314 315 314 314 314 314 314 314 314 314 314 314 313 314 314 314 314 314 314 314 314 314 314 314 314 314 315 314 314 315 315 315 316 316 316 317 317 318 319 319
311 313 313 313 313 312 311 311 315 315 314 320 321 320 321 321 322 321 319 323 321 315 319 323 316 314 321 326 322 316 315 319 321 321 317 310 311 313 313 314 315 315 315 315 315 315 315 315 315 315 315 315 315 314 314 314 314 314 314 314 314 314 315 315 315 315 315 315 315 315 315 315 315 315 315 316 316 317 317 317 317 317 318 319 320 320
311 311 312 312 313 312 312 313 317 316 315 319 319 319 320 320 321 322 324 325 318 314 321 323 315 314 321 327 324 317 315 317 319 320 316 310 311 313 313 314 314 314 315 314 315 315 315 315 315 315 315 315 315 315 315 315 315 315 315 315 315 315 315 315 316 316 316 317 317 316 316 316 316 317 317 318 318 318 318 318 318 318 319 320 321 321
311 309 311 313 312 312 313 314 314 315 314 315 317 319 319 322 325 328 331 327 316 317 326 326 319 313 314 324 324 316 315 317 315 317 315 310 311 314 314 315 314 314 315 314 315 315 315 315 315 316 316 315 316 315 316 316 315 316 316 316 316 316 316 316 317 317 317 318 318 317 317 318 319 319 319 320 319 319 319 319 318 319 320 321 322 322
312 312 313 311 310 311 315 315 313 313 313 316 322 320 317 322 327 329 330 323 316 321 327 322 317 313 313 322 325 317 316 317 314 317 318 313 312 315 315 315 315 315 315 315 315 315 315 316 316 317 317 317 317 316 316 317 316 317 316 316 317 316 316 317 317 318 318 319 319 319 319 320 321 322 322 322 321 321 320 320 320 321 322 322 322 322
314 316 313 310 310 312 317 318 315 315 315 318 321 317 317 322 321 320 323 320 319 321 318 315 315 315 315 318 319 316 316 316 312 312 314 312 312 316 316 315 315 315 315 315 315 316 315 316 316 316 317 317 318 318 318 318 317 317 317 316 316 316 316 316 317 318 318 319 319 320 321 322 323 324 324 324 324 323 322 322 322 322 323 323 322 322
316 319 314 312 312 311 315 316 316 318 315 314 316 316 319 320 314 314 318 316 317 318 314 312 314 316 317 317 317 316 314 314 310 309 312 312 313 315 315 315 315 315 315 315 315 315 314 314 314 314 314 315 316 317 317 318 318 317 317 316 316 316 315 315 316 317 318 319 319 321 322 323 324 325 325 326 325 325 324 324 324 324 324 324 322 322
316 318 315 315 313 312 314 315 317 321 315 314 317 317 319 320 316 317 319 318 318 317 314 311 315 320 319 318 318 313 310 311 311 311 312 312 313 315 315 315 315 314 314 314 314 314 314 314 314 313 313 313 313 314 314 315 315 315 316 316 316 315 315 314 314 315 316 317 318 320 322 323 325 326 326 327 326 326 326 326 326 326 325 324 323 323
315 315 315 314 310 312 315 314 315 317 315 316 317 317 318 320 323 321 319 323 323 318 316 313 317 325 320 314 314 310 309 310 309 310 311 312 314 315 315 315 314 314 314 312 313 314 315 314 314 313 313 313 313 312 313 313 313 313 313 314 314 314 314 313 313 313 313 314 317 319 321 323 325 326 326 327 327 327 326 327 327 326 325 325 323 323
314 314 315 313 310 311 313 313 313 314 315 316 314 318 320 318 324 322 313 316 318 316 319 315 316 324 319 314 317 314 313 313 310 309 310 311 315 315 315 316 314 314 312 311 313 314 315 315 314 314 313 313 313 311 312 311 311 312 312 312 313 312 312 312 311 311 311 312 315 318 320 323 324 325 325 326 326 326 326 326 326 326 325 324 323 323
316 315 314 314 313 311 309 310 312 311 314 317 315 317 318 314 320 321 314 315 315 315 322 317 315 322 319 318 325 318 314 316 315 313 311 310 312 313 314 315 314 314 312 311 313 315 316 316 315 316 315 314 315 313 312 311 311 311 310 311 311 311 311 310 310 310 311 312 314 316 319 321 323 324 324 325 325 325 326 326 325 325 325 324 323 322
317 318 314 312 314 313 311 312 314 311 310 315 315 313 315 317 318 318 316 317 314 313 323 320 314 318 318 320 326 317 314 318 316 316 315 312 310 311 313 314 313 314 312 311 314 315 316 316 315 316 315 315 315 315 314 313 312 312 311 311 311 311 311 310 310 310 310 311 313 315 317 319 321 322 323 323 324 324 325 325 325 325 324 323 323 323
316 320 316 311 311 313 314 314 315 315 311 312 312 310 314 320 321 318 316 318 317 315 322 320 315 319 321 320 322 316 317 320 316 318 319 312 309 312 313 313 312 312 312 312 314 316 315 315 316 315 315 316 316 315 315 314 313 313 313 312 312 312 311 311 310 310 310 310 311 312 314 317 320 321 322 322 323 323 323 324 323 323 322 322 322 322
314 318 317 313 311 312 316 316 315 316 314 313 314 312 312 315 318 319 317 318 321 321 322 320 316 323 326 319 316 315 315 317 316 321 319 311 310 313 312 312 312 311 312 313 314 315 315 315 315 316 316 316 316 315 315 315 314 313 313 312 312 312 311 311 311 310 310 310 310 311 312 315 317 319 320 321 321 322 322 321 321 321 321 320 320 319
315 315 317 315 313 314 316 315 314 316 315 314 315 313 313 315 316 316 315 316 319 319 323 320 315 323 328 318 314 314 314 313 311 313 314 312 312 314 312 312 312 312 313 314 314 315 315 315 315 315 316 316 315 316 315 315 315 314 314 313 313 313 312 312 312 312 311 311 311 311 312 314 316 317 318 319 320 320 320 319 319 320 319 317 315 314
315 316 317 316 315 316 315 310 307 311 314 315 314 313 314 314 314 316 318 318 315 314 318 317 314 320 329 323 315 312 311 309 307 307 309 311 312 313 312 311 311 313 314 313 314 315 315 315 315 315 316 315 316 316 315 316 315 315 315 315 315 314 314 314 314 313 313 312 312 312 312 313 314 315 316 316 317 318 318 318 318 318 316 314 313 312
316 318 318 316 314 317 319 314 308 309 312 314 314 314 314 314 320 326 327 322 316 313 315 313 312 321 332 326 312 306 305 306 307 308 308 311 312 311 312 311 311 313 314 313 314 315 315 315 315 315 315 315 315 315 315 315 315 315 315 315 315 315 315 315 315 315 314 314 314 313 313 313 314 315 315 316 317 317 317 316 315 314 313 312 312 311
317 317 317 317 316 316 319 318 314 311 312 315 316 314 313 315 319 321 319 315 314 318 320 315 313 318 325 319 307 305 309 308 308 310 310 311 312 312 313 313 313 314 314 312 312 313 314 314 314 315 315 315 315 315 315 315 315 315 315 315 315 315 315 315 315 315 315 315 315 315 315 315 316 316 316 316 316 316 314 313 312 312 311 311 311 311
322 319 315 317 317 315 315 315 315 314 314 315 317 316 314 315 315 315 317 314 314 320 320 314 313 314 314 312 310 312 314 313 311 310 311 312 311 312 314 314 315 315 313 311 311 312 312 313 314 315 314 315 315 315 315 315 315 315 315 315 315 315 315 315 315 315 315 315 315 315 315 315 315 315 315 314 314 313 312 312 311 311 311 310 311 310
323 319 314 315 315 313 314 315 316 317 315 314 316 317 316 314 314 317 321 317 315 318 316 313 315 315 312 312 314 315 316 317 313 308 309 312 311 312 314 315 316 314 312 311 311 311 312 312 313 314 314 314 315 314 314 314 314 314 314 314 314 314 314 314 314 314 314 314 314 314 314 314 313 313 313 313 312 312 311 311 311 310 310 310 309 309
323 317 314 315 313 314 320 320 317 316 314 314 315 315 315 314 314 317 318 315 315 317 314 313 316 316 314 315 315 316 316 317 312 306 307 311 311 311 312 313 314 313 311 310 310 311 311 311 312 313 314 314 314 314 314 314 314 314 314 314 314 314 314 314 314 314 314 314 313 313 313 313 313 312 312 312 311 311 311 310 310 310 310 309 309 308
320 317 314 314 313 315 319 320 317 316 314 315 316 315 314 315 314 314 314 314 316 315 313 317 319 316 315 316 315 314 313 312 309 306 307 310 310 311 311 311 311 311 310 310 310 311 311 311 312 313 313 314 314 314 314 314 314 314 314 314 314 314 314 313 313 313 313 313 313 313 313 312 312 312 311 311 311 310 310 310 309 309 309 308 308 307
315 317 314 313 313 314 315 315 315 316 315 314 316 315 314 315 315 313 313 313 315 314 313 318 320 316 314 315 315 312 309 307 308 308 308 309 309 310 311 311 311 310 310 311 311 311 311 312 312 313 313 314 314 314 314 314 314 314 314 314 313 313 313 313 313 313 313 313 313 312 312 312 311 311 310 310 310 310 310 309 309 309 308 307 306 305
312 316 314 313 314 313 313 313 312 314 315 314 315 314 314 314 314 313 313 312 313 313 313 315 317 314 312 311 311 310 308 307 308 309 309 309 308 309 311 311 311 310 311 311 311 311 312 312 313 313 313 313 314 314 314 314 314 314 314 314 313 313 313 313 313 312 312 312 312 312 312 311 311 310 310 309 309 309 309 308 308 307 306 305 304 302
314 314 311 313 316 313 313 315 313 312 312 313 314 314 314 313 313 312 313 313 313 313 313 314 314 313 312 310 308 308 307 307 308 310 311 309 308 309 310 311 311 311 311 311 311 312 312 312 313 313 313 313 313 313 314 314 314 314 314 314 313 313 313 313 312 312 312 312 311 311 311 311 310 310 309 309 308 308 308 307 306 305 303 302 300 299
317 316 313 315 316 313 312 315 316 314 313 313 314 313 312 312 312 312 313 314 313 312 313 313 312 313 314 312 312 312 310 308 309 311 312 310 309 309 310 311 312 311 311 312 312 312 312 312 312 312 312 313 313 313 314 313 313 313 313 313 313 313 313 312 312 312 311 311 311 311 311 310 310 309 308 308 307 307 306 305 303 302 300 299 299 298
316 316 314 315 316 314 311 313 316 316 315 315 315 314 312 312 312 312 313 313 312 312 312 311 312 315 316 314 316 316 313 311 311 311 312 312 311 310 310 310 311 311 312 312 312 312 312 312 312 312 312 312 312 313 313 313 313 313 313 313 313 312 312 312 312 311 311 311 310 310 310 310 309 308 307 307 305 305 303 302 301 299 298 298 298 298
314 315 315 316 318 315 311 313 316 315 314 315 318 316 311 310 312 313 313 313 312 312 313 311 312 314 313 311 312 313 312 312 312 312 313 313 312 312 312 311 311 311 311 312 312 312 312 312 312 312 311 312 313 313 313 313 312 312 312 312 312 312 312 312 311 311 310 310 310 309 309 309 308 307 306 305 303 302 300 299 299 298 298 298 297 296
313 315 315 315 314 313 312 313 315 314 312 315 318 314 310 310 312 312 312 313 312 312 312 312 312 311 308 307 309 311 311 311 312 312 312 312 312 313 313 312 312 312 312 312 312 312 312 312 312 312 311 312 312 313 313 312 312 311 311 312 312 312 311 311 311 310 310 310 309 308 308 307 306 305 304 302 301 299 298 298 298 298 298 297 296 295
311 314 315 312 311 314 315 313 314 314 312 312 314 312 310 311 312 312 313 313 312 311 311 311 311 311 309 308 309 310 310 311 312 312 312 313 313 313 313 313 313 313 312 312 312 312 312 312 312 312 312 312 312 312 312 312 311 311 311 311 311 311 311 310 310 310 309 309 308 307 306 305 304 303 302 300 298 298 297 298 298 298 296 295 295 294
310 313 315 312 311 315 317 314 312 313 311 310 313 313 310 309 310 311 313 314 313 310 309 309 311 311 310 308 308 309 310 312 313 312 311 312 313 313 313 313 313 313 313 312 312 312 312 312 312 312 312 312 312 312 311 311 311 310 310 311 311 311 310 310 309 309 308 307 306 305 303 302 301 301 300 298 297 298 298 297 297 296 295 294 293 293
311 313 314 313 312 313 314 313 312 311 310 312 316 315 310 308 309 310 312 314 312 309 307 309 310 309 308 307 308 310 313 314 313 310 310 312 312 312 313 313 313 313 313 312 312 312 312 312 312 311 312 311 311 311 311 311 310 310 310 310 310 310 310 309 308 308 307 306 304 303 301 299 298 298 298 298 297 297 297 296 295 295 294 293 293 292
312 313 312 313 314 312 312 313 312 310 311 316 319 312 307 308 310 312 315 314 310 309 309 309 309 309 309 308 308 310 313 314 312 310 310 311 311 311 312 312 312 313 312 312 312 311 312 312 312 312 311 311 311 311 310 310 310 309 309 310 310 310 309 308 308 307 306 304 303 301 299 298 297 297 298 298 297 296 296 295 294 293 293 292 292 292
313 313 312 312 312 312 312 312 313 312 314 318 314 306 305 310 311 312 316 313 308 308 310 310 309 309 309 308 307 309 312 312 311 311 311 311 311 311 311 311 312 312 312 312 312 311 311 312 312 312 311 311 310 310 310 310 310 309 309 309 309 309 308 307 307 306 304 303 301 299 298 297 297 297 297 296 296 295 294 293 293 292 292 292 292 292
313 313 312 310 310 312 312 311 312 312 312 312 308 304 306 312 313 311 312 310 309 308 309 310 310 310 309 309 309 310 311 311 311 311 310 310 310 310 311 311 311 311 311 311 311 311 311 311 312 312 311 310 310 310 310 310 309 309 309 309 308 308 307 306 305 304 303 301 299 298 297 296 296 296 296 295 294 294 294 293 292 292 291 291 291 291
311 312 312 309 309 312 312 310 311 312 309 307 307 306 309 313 313 311 309 308 309 309 310 310 310 310 310 310 310 311 311 311 311 310 310 310 310 310 310 311 311 311 311 311 311 311 312 312 312 311 310 309 309 309 309 309 309 308 308 308 308 307 306 305 304 302 300 298 297 296 296 296 296 295 294 294 293 293 293 292 292 291 291 291 291 291
311 312 313 311 310 312 311 310 312 313 308 306 308 310 310 310 311 310 309 309 309 310 310 310 310 311 311 310 310 311 310 310 310 310 310 310 310 310 310 310 311 311 310 310 310 310 311 311 311 310 309 308 308 308 308 308 308 308 307 307 306 306 305 303 302 299 297 296 296 296 295 295 295 294 294 293 293 292 292 291 291 291 291 291 291 291
311 310 311 312 312 312 311 310 311 310 306 305 309 310 309 309 310 310 310 310 310 310 310 311 310 311 311 310 311 311 310 311 311 310 310 310 309 310 310 310 310 310 310 310 309 309 309 309 309 309 308 308 307 307 307 307 306 306 306 306 305 305 304 302 299 297 296 295 295 295 295 295 294 294 293 292 292 291 291 291 291 291 291 291 291 290
311 307 308 313 314 311 309 308 308 307 305 306 308 309 309 309 310 310 310 310 311 311 311 311 311 311 311 311 311 310 311 311 311 310 310 309 309 310 310 310 310 310 310 309 309 308 308 308 307 307 307 307 307 306 306 306 305 305 305 305 305 304 302 300 298 296 295 295 295 295 295 295 294 293 292 292 291 291 291 291 291 291 291 291 290 290
310 306 308 314 314 310 310 311 310 308 307 306 308 309 309 308 309 310 311 311 311 311 311 311 311 311 311 311 311 311 311 311 310 310 310 309 310 310 310 310 310 310 310 309 309 308 308 307 307 306 306 306 306 306 306 305 305 304 304 304 304 302 300 298 296 296 295 295 295 295 294 293 293 292 292 291 291 291 291 291 291 290 290 290 290 290
309 307 310 315 313 310 311 311 306 306 307 307 308 310 309 308 309 310 311 311 311 311 311 311 311 311 311 311 311 311 311 311 310 310 310 310 310 310 310 310 310 310 310 309 308 308 307 307 307 306 306 306 305 305 305 305 304 304 303 303 302 300 298 296 295 295 295 295 295 294 293 293 292 292 292 291 291 291 291 290 290 290 290 289 289 289
307 307 311 314 312 310 310 306 302 306 309 308 308 310 310 309 309 310 311 311 311 311 311 311 311 311 311 311 311 311 311 311 311 310 311 311 310 310 310 310 309 309 309 309 308 308 307 307 306 306 305 305 305 305 305 304 304 304 302 301 300 298 296 295 295 295 295 295 294 294 293 292 292 291 291 291 291 290 290 290 289 289 289 289 289 289
307 310 312 311 310 310 310 307 306 310 312 309 309 310 311 310 309 310 311 311 311 311 311 311 311 311 311 311 311 311 311 311 311 311 311 311 311 311 310 310 309 309 309 308 308 307 306 306 305 305 305 305 304 304 305 304 304 303 301 298 297 296 295 296 296 295 295 294 294 293 292 292 292 291 291 290 290 290 290 289 289 289 289 288 288 288
308 311 310 309 310 310 308 306 306 309 311 309 308 309 311 310 310 310 310 310 311 311 311 311 311 310 310 310 310 310 311 310 311 311 311 311 311 310 310 310 309 309 308 308 307 306 306 305 304 304 304 304 304 304 304 304 303 302 299 296 295 295 296 296 296 296 295 294 293 292 292 291 291 291 290 290 289 290 289 289 289 289 288 288 288 288
Wind_Speed
17 8 8 10 10 11 10 7 7 6 5 5 4 5 6 6 5 4 3 4 3 5 5 8 8 10 9 9 12 12 8 11 18 20 21 23 24 27 29 30 31 31 30 26 25 26 27 27 26 26 26 27 27 28 29 30 30 30 30 31 30 29 28 28 27 27 27 28 29 29 28 27 25 24 24 23 21 21 20 20 19 19 19 19 20 19
13 9 8 9 8 9 9 7 8 8 5 4 3 5 6 5 5 5 3 3 1 4 4 3 5 10 10 10 12 10 6 12 21 21 23 25 25 27 28 31 32 31 29 27 26 26 27 28 27 27 28 29 29 30 31 32 31 30 31 32 31 30 30 30 29 28 28 28 28 27 26 24 23 23 22 21 20 19 19 19 19 19 18 18 19 19
9 9 8 8 8 8 7 7 9 9 7 5 3 3 5 4 3 4 3 3 2 2 4 2 3 9 10 10 10 10 12 19 25 25 26 28 27 28 30 32 32 31 31 30 28 26 27 28 27 28 29 30 31 30 31 31 31 32 33 33 32 32 32 31 30 30 28 27 27 26 25 24 23 23 22 21 20 19 20 20 20 19 19 18 18 19
7 6 8 11 11 10 8 8 9 7 6 5 4 4 4 3 3 4 3 1 2 2 1 1 2 7 8 7 8 15 22 25 25 25 27 29 30 31 31 31 32 33 33 31 29 28 28 28 28 29 29 30 31 32 32 32 32 33 34 34 33 32 32 31 31 30 28 27 27 27 27 26 26 24 23 23 22 22 22 22 21 20 20 19 18 17
5 5 14 13 10 11 10 9 9 6 5 5 5 5 3 5 6 4 2 2 2 2 1 2 4 6 5 5 8 12 15 19 22 22 25 29 32 32 31 31 32 32 32 31 30 29 29 30 30 29 29 29 31 33 34 34 33 33 33 33 32 32 32 32 31 29 28 29 30 30 30 29 29 29 28 27 26 25 25 23 22 21 20 19 18 17
6 10 19 13 8 12 11 10 9 7 5 5 6 7 7 9 8 4 5 5 3 2 2 1 1 6 4 4 9 6 4 10 15 16 22 30 32 33 33 34 34 33 32 31 30 30 30 30 30 30 30 30 32 33 33 33 33 33 32 31 32 33 33 32 30 29 30 31 32 32 32 32 32 32 31 29 27 26 24 22 21 19 18 18 17 17
6 9 15 13 10 11 9 8 8 9 6 4 6 7 6 6 7 8 8 5 3 3 3 3 4 5 6 4 8 5 4 9 9 9 19 28 30 32 36 37 36 34 33 32 31 31 31 31 31 31 30 31 32 31 30 31 32 33 33 32 32 32 32 32 31 31 32 33 33 33 33 33 33 33 31 28 26 26 25 23 21 19 18 18 18 17
6 9 10 12 13 10 9 8 7 9 8 4 5 7 8 7 8 9 8 5 2 3 2 4 4 3 5 6 6 3 5 9 8 9 15 22 28 32 36 38 37 36 34 33 32 32 31 31 31 31 30 29 28 27 29 31 31 32 32 32 32 32 32 32 32 32 33 34 33 33 34 34 34 33 31 29 28 27 25 23 22 20 19 19 19 18
4 11 10 11 10 7 8 7 7 10 6 5 5 7 8 7 7 6 6 3 1 3 1 4 2 2 5 7 5 3 3 8 9 9 10 16 24 29 33 37 37 37 36 34 33 32 31 30 30 29 28 27 26 26 28 29 29 30 30 31 32 33 33 33 33 34 34 34 34 34 34 35 35 34 32 31 30 28 26 24 22 21 21 20 20 19
1 10 13 13 9 7 8 6 9 11 5 5 7 7 5 5 6 4 5 4 2 1 4 6 3 2 5 6 4 3 3 7 9 9 9 14 18 20 24 29 31 34 34 34 34 33 32 31 30 29 29 29 29 28 28 28 29 30 31 32 33 33 33 33 34 34 34 35 35 35 36 36 36 35 34 33 32 30 28 25 23 22 22 21 20 19
3 3 7 8 6 7 9 4 5 8 8 10 9 6 6 5 4 4 3 4 2 2 6 7 4 3 4 6 4 5 5 7 7 7 9 13 15 15 17 20 23 26 28 29 30 30 31 30 29 30 30 30 30 30 30 30 30 31 31 32 33 33 33 34 34 34 35 35 36 36 36 37 37 36 35 33 32 30 28 26 25 24 23 21 20 19
3 3 3 2 2 6 7 4 3 2 7 9 5 5 5 3 4 4 4 3 2 5 6 5 3 3 4 5 5 6 7 6 6 6 7 10 12 12 14 16 18 20 21 23 24 25 27 27 27 28 28 29 30 32 32 31 31 32 32 33 34 34 34 34 35 35 36 36 36 37 36 37 37 36 35 33 31 30 28 26 25 24 23 22 21 19
1 2 2 1 1 5 7 4 3 2 2 5 5 7 6 1 2 0 2 1 3 6 4 3 2 2 5 8 9 10 10 9 9 11 10 10 10 9 9 10 11 12 14 16 18 20 23 25 26 26 27 28 29 31 32 32 33 33 33 34 35 35 35 35 36 36 36 36 36 37 37 37 36 36 34 32 30 28 26 26 25 25 23 22 21 20
2 5 3 1 2 4 8 7 5 2 2 4 7 7 5 3 3 4 3 1 3 4 3 3 2 2 4 7 11 14 16 15 12 14 15 12 10 9 7 7 7 9 11 12 14 16 19 22 23 25 26 27 28 30 31 32 33 34 34 35 36 35 35 35 35 36 36 36 36 36 36 36 35 34 33 31 29 26 25 25 25 24 23 22 21 20
7 4 4 4 2 4 5 5 7 7 4 4 5 6 5 5 5 5 3 2 4 2 3 2 1 3 4 4 8 12 16 17 14 15 17 15 13 11 9 10 11 12 12 12 13 14 17 19 21 23 24 25 27 28 30 32 33 34 35 36 36 35 34 34 34 34 34 34 34 34 34 34 33 32 31 29 27 25 24 24 24 24 24 22 20 19
9 5 4 2 0 5 5 3 5 9 6 4 3 5 4 5 5 3 3 5 5 1 1 2 3 5 4 6 10 9 10 13 11 10 13 16 15 13 14 14 14 14 13 11 10 10 12 14 16 18 20 21 23 24 26 29 31 32 33 34 34 33 32 31 31 32 32 32 32 32 32 31 31 30 29 27 26 25 24 25 24 24 24 22 21 20
8 2 4 3 2 2 3 3 3 4 5 2 3 4 5 4 7 5 2 1 3 2 3 2 3 5 3 7 11 6 5 8 6 6 9 13 14 14 17 17 16 16 13 10 10 9 10 11 12 12 13 15 16 17 19 21 24 26 28 29 29 28 28 27 28 28 29 29 29 29 29 29 29 28 27 26 25 25 25 26 25 24 23 22 21 21
6 2 4 1 2 2 1 1 1 2 4 5 4 6 4 2 3 4 2 1 3 2 4 1 3 4 2 3 7 6 6 8 6 7 9 11 12 15 19 19 17 17 14 11 11 11 11 11 11 11 10 11 10 11 12 13 15 17 18 20 21 22 23 23 23 24 25 25 26 26 27 26 26 25 25 24 25 25 26 26 25 24 23 22 22 22
5 3 4 2 2 3 4 3 1 3 2 4 5 5 4 3 2 2 3 2 2 3 4 3 3 4 4 5 5 5 7 9 8 7 7 9 14 18 21 21 19 18 16 14 13 13 13 12 11 10 9 9 9 9 9 9 10 11 13 14 16 17 18 19 20 20 21 22 22 23 23 23 23 23 23 24 24 25 25 25 25 25 24 24 23 23
4 4 2 2 1 1 3 2 6 3 1 3 1 2 2 2 4 3 3 4 4 4 3 3 3 3 6 7 6 8 9 8 8 7 6 11 18 21 20 19 19 20 19 16 15 14 13 12 11 10 9 8 8 8 8 8 9 10 11 12 14 15 15 16 17 17 18 18 19 20 20 21 21 22 23 24 25 25 26 26 26 26 25 25 24 24
2 3 3 2 2 1 2 3 7 8 5 2 3 5 3 1 2 2 1 3 4 4 4 2 3 5 7 6 8 11 11 9 8 7 7 13 19 19 16 14 16 20 19 17 15 15 14 13 12 10 10 9 9 9 9 9 9 10 10 11 12 13 13 14 14 15 15 16 17 18 19 20 20 21 22 23 24 24 25 25 23 22 22 22 20 19
1 3 5 3 1 3 4 4 4 6 6 5 5 7 8 4 4 4 4 2 2 3 5 4 4 8 6 5 8 11 10 9 8 8 9 13 17 17 15 14 15 16 17 16 15 15 14 13 12 11 10 10 10 9 9 9 9 9 10 10 10 10 10 11 11 12 14 15 16 17 18 19 20 21 22 22 22 22 22 21 19 17 17 15 14 13
3 4 4 2 4 5 4 3 3 4 1 2 4 4 6 5 4 6 6 3 2 1 3 4 3 8 6 5 8 10 9 8 9 11 12 12 13 13 13 15 15 15 16 16 15 15 14 13 13 12 12 11 10 9 8 8 8 8 8 8 8 8 8 9 10 11 13 14 15 16 17 18 19 20 20 20 20 19 18 17 15 15 14 13 12 11
4 5 4 1 2 3 5 4 1 2 1 2 4 2 4 4 4 5 5 4 4 3 3 1 4 7 5 3 5 7 8 7 8 11 12 9 10 12 13 15 17 18 18 17 15 15 15 15 15 14 13 11 10 9 9 8 8 8 8 8 8 8 9 9 10 11 12 12 13 14 15 16 17 17 17 17 16 16 15 15 15 16 14 13 12 10
4 3 4 4 2 3 3 4 2 3 3 4 3 2 4 3 6 4 2 3 2 5 6 4 7 6 5 3 1 2 2 2 5 9 11 11 13 14 13 14 17 19 19 17 16 15 15 16 15 14 13 12 11 10 10 9 9 9 8 8 8 9 9 9 10 10 11 11 12 13 13 14 15 15 15 16 16 16 16 17 16 15 13 12 12 12
6 3 5 6 6 7 8 6 6 5 3 1 1 4 6 6 7 5 3 3 5 6 7 8 8 3 3 3 2 2 2 5 8 9 11 12 13 13 13 16 19 19 18 17 16 15 15 15 15 15 15 14 13 12 11 11 10 9 9 9 9 9 9 10 11 11 11 12 12 13 15 16 16 17 18 18 18 17 16 15 14 13 13 13 13 14
4 2 7 8 10 12 10 7 5 9 8 9 11 11 10 10 9 5 5 6 7 4 7 12 6 3 1 2 4 7 7 7 8 8 11 13 13 13 15 17 18 18 17 17 16 15 15 15 15 15 15 15 14 13 12 10 9 9 9 9 10 11 11 11 12 12 13 13 14 15 16 17 18 18 18 18 17 16 15 15 15 15 15 15 15 14
4 4 9 9 10 8 5 6 7 11 13 15 13 11 9 9 9 7 9 11 7 6 10 8 7 5 6 7 9 10 8 6 7 9 13 13 12 14 16 17 18 18 18 18 17 17 17 16 16 16 16 15 14 13 12 11 10 10 10 10 10 11 11 12 12 13 13 14 15 16 16 17 17 17 17 16 16 15 15 16 16 16 16 15 15 14
4 7 8 6 7 5 2 8 11 12 11 10 11 11 9 9 11 14 19 13 9 9 11 5 9 10 8 7 9 9 8 6 6 8 11 11 13 14 16 18 19 19 20 20 19 18 18 18 17 16 16 15 14 14 14 13 13 13 12 11 11 11 12 12 13 14 15 15 16 16 16 17 16 16 16 16 17 17 17 17 17 17 16 16 15 14
4 6 4 7 6 3 2 7 9 11 9 8 12 14 13 13 16 20 22 15 11 14 8 5 3 10 6 8 10 8 7 5 2 5 9 12 15 15 15 17 19 21 22 21 21 20 20 18 17 16 16 15 15 15 15 15 14 13 12 12 12 13 13 14 15 15 16 17 17 17 17 17 17 17 18 18 19 19 18 18 18 17 17 17 16 15
3 5 3 7 5 2 3 4 4 7 9 9 10 11 14 18 20 21 20 10 7 13 11 4 10 10 5 10 10 7 7 3 3 8 12 13 14 14 16 19 20 22 23 22 22 22 21 19 18 17 17 16 16 16 15 16 15 14 14 14 14 15 15 16 16 16 17 18 18 18 18 18 19 19 20 20 19 19 19 18 18 17 17 17 16 15
3 2 2 6 5 5 3 6 5 5 5 6 9 13 17 19 17 16 12 8 10 15 14 10 12 9 5 7 7 6 6 7 9 14 15 15 14 16 19 21 23 24 24 24 25 23 23 22 19 18 17 17 17 17 16 17 17 17 17 16 16 17 17 17 17 17 18 19 19 20 20 19 20 20 20 20 20 20 19 19 19 18 18 17 16 15
6 6 3 5 7 4 1 7 7 7 4 4 10 16 19 17 14 11 8 10 16 15 11 12 12 5 5 6 6 4 6 10 14 18 18 17 16 18 20 22 25 27 26 26 27 26 24 23 20 19 18 18 18 18 18 19 19 19 19 18 18 19 19 19 19 19 19 20 21 21 21 20 21 21 21 21 21 20 20 19 19 19 18 17 16 14
7 9 5 5 6 3 2 7 7 5 7 9 7 13 20 19 16 14 13 15 16 13 11 13 8 4 7 7 8 8 11 14 17 19 18 17 17 18 21 23 26 27 26 26 27 27 25 23 21 20 20 19 19 19 20 21 21 20 20 20 20 20 20 20 20 20 21 22 22 22 22 22 22 22 22 22 22 21 21 20 20 19 18 16 15 14
8 8 4 3 4 3 3 7 6 8 11 6 3 5 15 18 17 18 19 17 15 14 15 15 11 6 8 9 11 13 15 16 16 17 16 17 18 18 19 21 24 26 27 28 29 29 26 24 23 23 23 22 22 22 22 23 22 22 22 21 21 21 21 21 22 22 22 23 23 23 23 23 23 23 23 23 23 22 21 20 19 18 17 16 15 13
9 7 3 3 3 3 4 6 8 7 5 5 6 2 6 9 11 13 14 13 11 12 13 17 19 12 9 11 11 10 10 11 12 15 17 17 18 18 19 20 21 25 28 30 32 31 29 27 26 26 25 24 23 24 24 24 24 24 24 23 22 22 22 22 23 23 24 24 24 24 24 24 24 24 24 24 23 22 21 20 19 18 16 15 14 13
9 8 4 3 2 3 4 5 5 5 7 8 8 4 6 8 9 10 9 12 12 14 15 17 18 12 9 12 13 10 8 8 8 15 22 20 16 18 21 20 20 22 25 28 32 33 31 29 28 27 26 25 25 25 24 24 24 25 25 25 23 23 24 24 24 25 25 26 26 26 25 25 25 25 24 24 23 22 21 20 18 17 16 14 13 12
6 6 7 7 3 3 5 3 3 4 9 9 5 5 10 15 14 12 8 11 12 17 20 18 15 11 8 9 12 12 8 5 7 14 21 21 21 23 24 23 23 24 24 26 30 34 34 32 30 28 27 26 25 24 24 24 25 26 26 25 25 25 25 26 26 26 27 27 27 27 26 26 25 24 24 23 22 22 21 19 18 16 15 13 12 11
5 2 5 7 3 3 6 4 6 8 9 5 6 7 15 22 19 13 3 9 6 13 22 19 13 11 12 14 18 15 8 6 9 11 13 17 23 28 29 28 28 27 28 28 29 33 35 34 32 30 28 26 25 24 25 26 26 28 28 27 26 26 27 27 27 27 27 27 27 27 27 26 25 24 24 23 22 21 20 18 17 15 14 13 11 10
5 3 3 5 4 5 6 5 5 6 7 6 7 8 17 26 22 14 2 10 5 14 24 24 19 20 22 24 21 12 8 11 13 12 12 15 19 24 27 29 29 29 30 29 29 31 34 34 33 31 28 26 25 25 26 27 28 29 29 28 27 28 28 28 28 27 28 28 28 28 27 27 26 24 23 22 21 20 18 17 16 14 13 13 11 9
3 1 2 5 6 6 7 6 4 5 6 7 6 12 25 26 16 8 8 9 10 18 25 28 28 28 26 24 19 13 17 26 25 19 16 16 17 19 21 25 28 28 28 28 28 30 32 32 31 29 27 25 25 26 27 29 30 31 30 29 28 28 28 28 28 29 29 29 29 30 29 28 26 24 23 21 20 19 18 16 15 14 13 12 10 8
4 2 1 3 4 4 4 4 4 6 7 8 9 17 25 17 4 8 7 6 13 17 17 22 26 24 21 24 25 24 28 32 31 24 20 19 19 18 18 21 24 26 26 25 25 27 29 29 28 28 26 26 26 27 29 30 31 32 31 30 29 28 29 29 30 31 31 31 31 31 30 28 26 24 22 21 19 18 17 16 15 13 12 11 9 8
7 6 4 4 5 4 2 4 5 8 6 19 19 10 9 7 7 11 10 8 12 15 13 16 18 15 18 23 25 27 28 28 27 25 22 21 20 18 18 19 21 24 25 24 23 24 26 27 27 27 27 27 28 30 31 32 32 33 32 30 29 30 30 31 33 33 33 33 33 31 29 27 25 23 21 20 19 17 16 15 14 13 12 11 9 8
6 7 6 5 4 5 4 8 8 4 10 30 25 11 14 13 7 13 16 12 13 15 14 16 16 14 16 17 18 22 25 24 24 23 21 21 20 19 18 18 19 22 23 23 23 24 25 27 28 28 28 29 30 32 32 33 33 33 33 31 31 32 33 34 35 35 35 34 32 30 27 25 23 22 20 19 18 17 15 15 14 13 12 11 10 9
10 9 6 4 5 6 5 10 9 3 15 31 22 15 28 26 10 13 22 18 17 18 16 16 18 16 15 15 15 18 20 21 22 22 22 21 20 18 18 18 19 21 22 22 23 24 25 28 28 29 30 31 32 33 33 34 34 33 33 32 32 33 34 35 36 35 34 32 30 28 26 24 23 22 20 19 18 16 16 15 14 13 12 12 11 10
8 7 6 3 4 5 6 8 6 2 11 24 16 12 30 33 18 16 22 19 18 19 16 14 16 16 15 17 18 19 19 20 21 21 21 20 18 17 18 19 20 21 21 23 24 25 26 28 28 29 31 31 33 34 34 34 33 32 31 31 32 34 35 36 36 35 34 32 30 28 26 24 23 22 21 19 18 17 16 15 14 14 13 13 13 12
3 7 6 3 5 7 7 7 8 7 13 25 20 12 23 31 23 18 18 16 16 16 15 14 15 15 16 18 19 20 20 20 20 21 20 19 18 18 19 20 20 21 22 23 24 25 26 27 29 30 31 31 33 33 34 34 33 32 32 32 33 35 36 37 36 35 33 31 29 27 25 24 23 22 21 20 19 18 17 16 16 15 15 14 13 12
5 9 8 4 5 8 6 4 7 10 15 23 20 14 17 27 27 21 18 18 17 16 16 16 15 16 17 18 20 21 20 18 18 18 17 16 17 17 18 19 21 22 23 24 25 26 27 28 29 30 31 31 32 33 34 35 35 35 34 34 35 37 37 37 36 34 32 29 27 26 25 24 22 22 21 20 19 18 18 18 17 17 15 14 13 12
8 9 7 5 6 6 4 1 4 5 5 12 17 15 17 26 30 26 21 20 18 17 17 17 17 17 17 17 17 16 14 13 13 13 14 15 16 17 18 20 21 23 25 26 27 28 29 30 30 30 30 30 32 34 35 36 37 36 35 35 36 37 37 36 35 32 30 29 27 26 25 24 23 22 21 21 20 20 20 19 18 16 15 14 13 12
9 7 4 4 7 9 7 7 12 7 2 11 22 21 18 22 28 27 23 20 19 18 18 18 18 18 16 14 13 12 12 13 13 14 16 17 17 18 20 21 22 24 26 27 28 29 29 30 29 29 30 30 32 34 35 36 37 36 35 36 37 37 37 36 34 32 30 29 28 27 26 24 24 23 22 22 22 21 21 19 18 16 15 14 14 13
9 9 9 9 9 11 10 17 22 13 5 14 27 28 23 23 26 27 26 24 22 20 20 19 18 16 14 13 13 14 15 16 16 18 19 20 20 21 21 22 23 24 25 27 29 29 30 30 30 30 30 31 32 33 34 36 37 37 37 37 38 37 37 36 35 33 31 30 28 27 25 25 24 24 24 23 22 21 20 19 18 17 16 16 15 14
Wind_Direction
175 176 194 196 193 193 203 192 194 216 189 172 180 192 194 190 222 229 244 282 151 158 231 216 224 249 249 259 255 244 240 241 240 240 238 232 227 226 226 229 231 233 240 244 239 236 235 234 231 229 226 225 224 224 226 226 227 229 231 232 233 234 235 235 233 232 230 230 231 232 235 238 240 241 243 243 243 245 248 250 251 251 252 255 257 255
176 199 208 193 183 184 194 181 190 217 205 175 184 210 219 202 226 243 242 302 73 167 254 258 240 259 256 254 256 251 246 244 239 237 239 237 234 234 233 234 235 238 242 242 239 236 236 236 235 233 229 226 225 224 224 226 227 228 230 231 233 233 234 234 234 233 233 234 233 235 239 242 245 246 248 250 251 252 252 253 253 253 252 254 257 258
193 214 198 181 175 175 190 184 195 215 205 202 196 187 224 218 239 279 269 309 38 173 264 324 241 255 258 258 261 247 237 245 242 236 238 239 239 240 239 238 237 238 240 240 238 236 235 236 236 235 233 229 229 227 227 228 227 228 229 231 232 232 233 234 235 235 235 237 238 240 243 245 247 249 252 255 256 256 254 253 253 253 252 251 253 256
204 215 186 184 180 180 200 198 199 212 204 209 183 165 225 207 181 249 258 267 62 119 202 88 292 272 270 278 271 246 239 246 249 244 244 244 244 246 244 243 241 238 239 240 239 237 234 235 235 234 232 230 230 229 229 229 228 229 229 231 232 232 233 233 234 236 237 238 240 241 243 245 246 249 252 253 253 250 249 249 250 252 254 256 258 260
217 190 180 186 189 190 202 208 203 197 205 223 195 179 209 197 192 215 192 122 38 16 100 93 348 303 266 264 265 252 243 246 249 246 245 245 245 247 246 245 244 241 241 242 242 240 236 235 236 235 234 231 230 229 229 229 229 230 231 232 234 234 234 234 234 236 236 237 237 237 237 239 240 241 242 243 245 245 245 248 251 254 257 261 264 265
224 192 179 183 197 196 201 213 202 177 192 235 213 196 199 199 195 170 125 99 60 322 283 120 314 291 296 265 253 270 289 255 249 241 241 244 244 243 243 242 242 240 241 243 245 245 242 241 240 239 237 234 233 231 230 230 231 232 233 234 235 236 235 235 236 235 234 235 235 234 234 235 236 237 238 243 248 251 253 255 256 257 258 260 261 261
217 192 178 181 189 195 206 219 204 172 172 231 228 197 177 168 154 147 145 120 126 226 284 91 163 255 314 296 256 285 310 270 264 253 247 247 244 242 242 242 241 240 239 241 243 245 245 244 243 241 239 237 237 235 233 232 232 233 234 235 235 237 238 237 236 234 233 234 235 236 237 239 240 242 247 253 256 257 259 259 257 257 257 256 254 256
185 179 182 183 183 192 202 214 205 166 162 226 227 162 138 138 151 160 153 137 175 190 356 29 132 218 289 273 266 302 298 282 279 265 256 249 244 242 243 243 243 242 242 242 243 244 245 245 245 244 243 242 243 241 237 235 234 234 235 236 236 237 239 238 237 235 234 235 236 237 239 241 243 246 251 254 255 256 258 258 258 257 254 250 250 253
154 176 189 177 180 199 197 205 188 162 173 234 198 142 142 147 150 152 136 117 78 120 304 307 130 172 267 273 298 333 291 284 279 265 258 249 244 243 243 244 245 245 245 244 245 245 245 246 247 246 245 245 246 244 241 239 238 237 237 236 236 237 238 238 238 237 237 237 239 240 241 243 245 247 249 250 251 253 254 255 255 254 251 247 247 250
182 192 190 172 181 201 191 203 184 174 193 190 141 105 88 87 94 98 110 105 61 107 233 247 186 181 267 280 301 322 275 263 265 266 264 260 255 251 249 248 247 247 246 246 246 246 246 246 246 245 244 243 244 243 242 242 241 240 239 237 237 237 238 238 239 239 240 240 240 242 243 244 246 247 247 248 249 250 251 252 251 251 250 247 247 250
318 194 188 177 190 188 174 178 178 183 168 133 117 92 71 48 50 55 62 91 91 263 248 237 204 178 260 278 251 228 232 226 237 262 274 275 271 262 257 254 251 249 248 246 246 245 244 243 242 241 241 240 240 240 240 240 240 240 240 239 240 240 241 240 240 241 242 242 242 244 245 246 248 248 248 249 250 250 250 250 250 250 251 250 251 254
6 132 194 202 182 148 135 98 53 165 149 122 113 119 101 20 18 31 1 46 163 246 261 246 207 168 222 262 245 234 246 225 215 239 264 279 275 261 254 252 249 247 245 243 241 240 239 239 239 239 238 238 236 236 236 236 238 239 239 240 241 242 242 242 242 242 243 243 244 245 247 248 250 250 251 251 252 254 254 254 253 252 252 253 254 256
124 210 275 337 210 154 134 119 58 48 127 117 128 136 128 71 43 113 267 278 213 242 263 237 201 195 230 254 257 259 263 243 219 224 246 273 271 255 250 248 241 234 232 232 233 235 237 238 241 242 241 239 237 235 234 234 234 236 237 238 239 240 242 242 243 243 243 244 244 245 247 248 250 252 253 253 254 256 256 256 256 254 255 257 259 258
194 298 301 157 252 206 167 163 162 161 154 141 147 150 149 134 132 198 231 296 247 255 277 246 230 256 264 263 250 248 253 251 244 243 255 271 263 246 240 226 211 210 212 217 225 230 235 239 240 242 241 239 238 236 235 235 234 235 235 236 237 238 239 240 241 242 242 243 244 246 247 248 250 251 252 254 254 254 255 255 256 257 259 261 261 260
182 247 228 180 193 191 185 189 164 144 146 176 164 144 153 158 158 191 202 197 216 251 283 255 220 195 199 248 246 243 257 266 270 261 254 254 247 234 223 210 204 208 206 209 220 227 233 237 238 240 240 240 239 238 237 236 236 236 236 236 236 237 237 238 239 240 241 242 243 244 246 247 248 249 251 253 252 252 252 253 254 256 258 257 255 256
178 211 258 271 192 158 172 211 154 130 150 208 150 124 173 182 145 143 183 180 169 158 241 219 231 215 207 276 279 263 265 273 274 259 242 234 230 222 218 215 209 207 204 208 222 228 234 236 237 239 240 241 242 241 240 239 238 238 237 237 237 237 239 239 239 239 239 239 240 242 243 244 245 246 247 248 248 248 248 249 250 251 252 249 247 249
170 192 318 340 6 130 155 193 175 148 171 170 126 180 215 164 116 117 172 120 103 157 237 207 250 289 313 292 292 295 274 272 265 247 232 219 213 214 220 221 215 209 208 221 234 232 232 232 231 232 231 234 237 237 237 237 237 238 238 238 237 236 235 235 234 235 235 235 236 238 239 241 242 243 243 243 243 243 243 243 244 243 243 244 244 244
154 120 324 39 126 297 5 110 28 31 136 142 171 198 190 110 96 111 135 35 69 200 265 256 224 276 305 260 306 325 271 260 253 234 233 223 213 217 224 224 221 218 221 234 235 226 225 224 223 222 218 220 222 223 225 225 228 229 230 231 230 229 229 227 227 227 228 231 232 234 235 236 237 238 238 239 238 238 239 239 239 238 239 241 241 239
140 125 308 345 168 277 357 94 162 349 72 147 184 179 143 157 201 131 143 170 162 209 273 299 259 247 201 216 287 290 239 241 244 225 224 230 224 224 229 231 227 224 229 235 228 222 222 220 219 215 208 209 210 209 208 207 210 212 212 212 211 214 218 219 221 222 224 227 228 230 232 232 232 232 232 232 232 233 235 236 237 238 239 239 236 236
127 125 233 285 246 281 13 125 186 207 22 46 101 158 120 133 170 175 160 160 174 200 234 294 308 256 222 215 226 235 232 228 227 218 215 227 225 224 231 235 229 226 229 228 220 217 215 211 210 205 198 198 197 196 195 192 192 193 195 197 197 199 202 206 211 213 216 219 220 222 224 224 225 225 226 227 228 230 231 232 235 236 238 239 238 239
118 115 171 271 328 168 183 215 191 178 166 137 152 178 190 102 122 169 160 131 149 169 182 219 269 258 244 212 201 224 239 229 211 205 221 231 225 222 225 227 223 220 220 218 213 213 210 203 201 197 191 189 187 186 185 181 178 177 180 184 186 188 190 193 195 198 203 207 209 212 214 217 219 219 221 221 223 226 227 229 232 233 234 234 232 226
138 124 146 153 193 189 225 260 198 175 179 176 178 189 189 166 128 171 209 197 130 161 174 178 234 258 251 207 200 217 232 231 212 199 223 235 226 218 214 214 215 213 212 212 211 210 206 199 196 194 191 188 187 184 180 175 170 168 170 172 176 180 181 184 188 191 197 200 203 207 209 212 215 216 218 218 218 221 224 227 228 226 222 212 199 188
107 104 113 143 195 205 248 276 171 173 197 185 206 198 178 172 152 169 204 207 151 188 159 139 233 264 254 204 204 220 234 245 233 216 223 233 222 214 213 213 212 210 210 212 212 209 203 198 197 195 195 194 190 184 177 172 167 166 169 169 171 175 177 181 187 191 196 198 200 204 206 209 213 216 218 217 217 219 221 220 212 202 193 179 171 169
120 105 96 71 307 299 305 326 62 107 51 231 237 183 154 187 160 150 182 176 177 197 150 146 252 261 273 251 223 239 253 260 248 224 219 217 204 205 210 210 207 205 206 208 208 206 201 201 201 199 199 200 196 189 180 177 177 174 174 175 176 180 184 185 188 190 193 194 196 200 202 204 207 210 211 210 208 206 200 190 180 174 171 168 168 172
155 127 120 117 69 4 329 325 287 235 200 209 227 150 157 139 97 108 142 113 208 211 164 190 238 243 280 315 316 279 277 237 219 202 202 204 196 198 201 200 201 201 203 205 205 204 202 202 204 203 203 204 201 198 190 187 191 189 185 187 188 190 192 189 187 189 190 188 188 190 189 189 190 190 190 187 183 179 173 167 164 164 166 169 173 175
149 155 147 140 152 182 198 209 214 195 168 206 186 163 181 166 149 164 123 123 228 214 172 208 232 243 314 20 53 265 215 201 211 197 199 205 200 203 204 199 200 201 203 206 205 205 206 205 207 207 206 207 206 204 202 199 201 199 196 196 196 198 198 194 190 188 186 182 180 179 176 175 174 173 171 170 168 166 164 161 162 165 167 169 171 171
109 167 181 181 187 190 191 196 164 128 148 201 200 181 184 191 182 144 118 191 207 160 200 224 198 125 233 160 187 227 211 206 226 214 208 208 203 208 208 203 202 202 205 209 208 209 211 211 213 211 208 209 208 207 208 208 207 208 208 206 204 203 202 198 195 190 186 182 178 175 173 170 169 167 165 165 164 162 162 162 164 168 167 166 165 165
84 192 194 192 199 200 170 165 148 143 177 200 189 179 186 187 170 157 198 210 153 139 230 223 129 139 221 205 202 218 213 218 242 228 216 214 211 210 208 205 205 205 207 211 212 214 217 216 214 212 209 209 209 209 209 210 211 213 213 214 212 208 205 201 198 193 189 185 179 176 174 170 168 166 165 164 163 163 164 164 164 166 164 162 162 164
127 192 190 165 196 234 151 159 160 161 184 184 164 177 185 175 176 197 218 210 155 197 232 151 143 199 220 224 224 218 209 216 240 236 225 224 225 218 209 206 206 208 210 212 214 216 216 214 211 207 207 207 207 209 210 211 214 215 214 215 212 209 206 201 198 195 190 186 180 177 175 172 169 167 166 166 165 164 164 164 163 163 162 162 165 167
160 188 173 139 178 249 145 168 173 161 164 167 175 183 177 181 196 209 221 213 193 230 252 73 227 240 211 223 240 239 238 241 272 261 242 234 231 219 208 208 210 212 213 213 212 210 207 206 204 203 203 205 205 208 211 211 214 215 215 215 212 208 204 198 195 193 189 184 181 178 176 174 171 169 167 166 165 164 163 164 163 163 164 165 168 170
163 185 156 119 147 238 142 140 160 157 158 171 188 193 186 195 207 215 222 212 206 251 264 295 287 276 217 208 222 235 246 221 208 243 242 238 231 216 209 211 213 216 214 210 206 203 201 198 197 200 201 203 205 207 211 213 213 214 215 215 213 209 204 198 193 191 189 186 182 179 177 174 170 168 167 166 166 165 164 165 166 166 168 168 169 169
117 145 85 105 151 231 177 126 123 112 123 169 203 206 200 203 210 216 218 190 197 233 241 245 260 258 204 187 188 205 204 181 210 233 238 238 227 215 214 214 216 218 212 205 202 200 199 195 192 197 198 201 206 207 211 214 213 213 213 212 212 208 204 199 194 192 191 186 182 178 174 172 169 168 168 167 167 167 167 168 169 168 169 168 167 167
133 135 126 142 172 235 206 137 130 100 99 228 226 205 199 206 210 211 215 209 212 218 218 230 238 210 154 148 141 169 196 200 221 230 231 234 225 218 222 223 224 222 212 205 203 200 199 195 192 196 198 202 208 209 213 215 214 214 212 210 210 207 203 199 194 192 190 185 181 178 173 172 172 171 170 169 170 171 170 171 170 169 169 168 166 166
151 150 163 168 166 210 182 131 116 134 198 235 227 184 189 198 197 199 215 218 215 215 220 235 236 149 131 146 155 190 206 207 220 229 232 236 231 226 229 231 233 229 217 211 209 206 203 197 194 197 200 205 210 211 213 215 213 213 210 207 207 205 202 199 193 189 188 184 181 178 175 175 175 174 174 173 173 174 172 172 172 170 170 170 168 168
149 146 156 146 131 161 149 120 139 201 220 250 311 174 187 192 187 197 218 221 213 217 230 245 248 205 166 174 189 206 211 209 222 233 235 237 239 238 240 240 238 234 226 220 215 212 207 200 198 202 203 206 210 212 214 213 210 209 207 204 203 202 199 196 191 187 187 185 182 180 178 176 176 177 177 175 175 175 173 173 174 172 172 171 170 171
147 143 130 105 118 132 130 152 188 221 261 295 305 272 179 176 177 196 228 242 225 218 226 235 241 229 186 188 199 205 217 226 237 237 229 231 240 240 241 244 243 240 237 231 225 219 212 207 207 208 208 209 211 213 214 211 207 207 205 201 200 199 197 193 190 188 188 188 185 181 179 178 178 179 178 176 176 174 173 174 175 175 175 174 173 173
148 147 134 135 161 133 142 191 235 314 306 262 249 226 160 160 165 176 221 247 227 213 216 226 238 232 191 198 206 203 225 255 268 246 230 224 229 234 237 242 245 249 251 245 236 228 220 214 212 211 211 213 213 213 213 210 207 206 204 200 197 196 195 192 191 191 191 189 186 182 180 180 180 181 179 177 176 175 175 177 177 177 176 174 175 173
137 154 159 166 183 106 122 186 254 269 256 239 213 178 167 171 168 158 194 245 228 208 210 219 234 226 189 195 201 191 203 246 269 251 233 223 227 233 236 239 241 246 250 248 241 233 224 217 213 214 215 215 214 214 212 210 209 205 203 201 197 195 194 192 193 194 192 189 186 182 180 180 181 183 180 177 177 178 179 180 179 178 174 173 176 176
77 73 134 142 153 136 144 180 199 220 245 218 166 178 174 168 153 121 163 254 230 190 202 211 225 219 197 199 198 180 169 221 249 250 236 232 238 238 237 239 239 240 243 244 243 237 229 220 215 214 215 214 214 214 211 210 208 204 203 201 198 197 196 195 195 195 192 189 185 183 181 180 182 184 183 180 180 181 182 181 179 179 176 175 180 182
72 49 104 140 172 168 165 193 212 237 249 206 188 190 164 154 136 107 208 252 194 172 195 202 209 217 212 206 199 173 170 221 243 253 248 250 251 244 241 242 240 240 243 244 244 238 229 222 218 216 215 215 215 215 212 210 207 204 204 203 201 200 200 198 197 195 192 190 187 185 184 182 183 185 184 184 183 182 182 181 180 179 178 179 182 184
96 95 155 169 176 167 174 206 253 268 236 214 200 164 147 138 130 147 213 224 178 180 196 199 206 216 214 202 192 192 219 233 243 252 254 257 257 248 245 245 242 241 243 244 243 236 226 221 220 219 219 219 217 216 213 211 208 205 205 205 205 204 201 199 197 194 192 191 189 187 186 184 184 185 185 185 185 184 183 181 181 181 180 182 186 187
153 143 160 160 158 159 170 199 266 270 222 171 151 156 150 138 163 213 194 163 170 179 189 199 209 217 212 205 207 219 235 242 243 245 247 252 255 251 246 245 243 242 240 238 236 230 223 220 219 218 219 219 218 217 215 212 209 206 206 207 206 204 201 198 196 194 193 191 190 188 186 185 185 185 185 185 186 187 186 183 182 184 184 188 193 195
168 155 181 190 165 151 156 182 222 267 202 144 132 144 172 178 206 191 155 137 168 170 168 188 201 205 208 213 220 228 239 244 243 243 244 244 248 249 245 243 243 242 240 236 233 229 225 223 222 221 221 220 219 217 215 213 210 208 208 208 205 203 200 197 195 194 193 191 190 188 187 186 185 185 186 187 187 188 189 188 186 187 191 195 200 205
179 170 186 208 178 148 175 199 208 256 168 156 151 169 203 201 187 170 165 163 174 173 170 178 183 187 203 218 228 231 235 241 243 245 244 240 240 240 238 238 238 238 239 236 233 230 227 225 225 223 222 221 218 217 215 213 212 210 209 207 203 201 198 196 194 193 191 190 189 187 187 187 187 188 189 190 190 189 191 193 192 193 198 201 205 211
207 194 171 184 188 173 198 214 210 188 172 173 170 179 191 191 179 174 184 188 185 186 186 185 185 189 200 218 232 232 233 239 242 243 243 241 238 234 232 234 234 235 236 234 231 229 226 225 226 224 222 219 217 215 213 211 211 211 209 206 202 200 198 195 194 192 190 190 189 189 190 190 190 191 191 191 192 193 195 199 201 202 206 209 211 216
216 188 136 116 197 218 256 235 202 126 175 184 186 186 190 193 188 179 189 198 196 197 202 201 200 201 204 213 224 230 234 238 240 241 241 238 234 230 229 231 231 232 234 234 231 229 226 225 224 224 223 221 217 215 213 210 210 211 211 207 203 200 198 196 194 192 191 191 191 191 193 193 193 192 192 193 195 197 200 206 209 211 214 214 215 218
238 182 156 136 175 200 244 229 183 164 183 190 197 203 195 196 196 189 192 201 204 207 212 210 208 209 211 215 222 229 234 237 237 238 237 233 231 229 228 229 231 232 235 235 235 233 230 227 226 225 224 222 219 216 213 210 208 208 209 208 203 199 198 196 195 193 192 192 193 194 195 196 196 196 196 197 200 202 206 210 213 215 218 217 218 220
195 175 174 186 178 184 220 219 170 173 187 193 202 211 202 199 200 198 199 202 204 206 207 209 213 216 218 221 224 227 232 235 234 234 231 228 228 228 228 231 232 233 234 235 235 235 233 231 230 227 224 222 219 216 213 210 207 204 204 205 203 199 197 195 195 195 195 195 197 198 197 198 200 201 201 202 204 207 210 213 214 216 217 219 221 223
143 159 177 188 191 210 261 287 128 138 192 206 205 205 204 202 200 199 201 202 203 206 209 213 218 217 214 214 216 219 224 226 226 228 229 230 232 233 234 235 234 234 235 235 235 235 234 232 231 229 225 222 219 217 213 209 206 203 201 202 203 200 197 197 196 196 198 199 200 201 201 201 202 204 206 207 207 208 210 212 215 217 218 221 224 226
142 167 176 157 190 225 238 190 164 151 204 214 203 196 196 200 201 201 204 205 206 211 213 211 207 202 199 203 211 222 232 237 238 240 240 241 242 240 240 240 237 236 235 234 233 234 233 232 231 228 225 222 219 217 214 209 205 202 199 201 202 200 199 200 199 199 200 201 202 203 204 204 205 206 208 210 211 212 213 214 216 218 220 225 228 229
179 184 173 169 202 227 213 182 178 179 193 203 200 198 196 199 203 207 211 212 212 210 206 202 201 202 208 218 228 236 243 246 247 247 245 244 243 241 241 242 242 241 239 236 233 232 231 230 228 225 224 222 219 216 214 209 205 201 199 200 201 201 202 203 203 203 203 203 204 206 206 208 210 210 210 212 214 217 219 220 220 220 222 225 229 234